Miscellaneous Local Product
Issued by NWS Hastings, NE

Home | Current Version | Previous Version | Text Only | Print | Product List | Glossary On
Versions: 1 2 3 4 5 6 7 8 9 10 11 12 13 14 15 16 17 18 19 20 21 22 23 24 25 26 27 28 29 30 31 32 33 34 35 36 37 38 39 40 41 42 43 44 45 46 47 48 49 50
000
AXUS43 KGID 030702
MISGRI

GID CWA HOURLY WEATHER ROUNDUP
NATIONAL WEATHER SERVICE HASTINGS NE
100 AM CST TUE MAR 03 2015

NOTE: "FAIR" INDICATES FEW OR NO CLOUDS BELOW 12,000 FEET WITH NO
SIGNIFICANT WEATHER AND/OR OBSTRUCTIONS TO VISIBILITY.

...SOUTH CENTRAL NEBRASKA...

CITY           SKY/WX    TMP DP  RH WIND       PRES   REMARKS
GRAND ISLAND   CLOUDY    29  21  72 S13G22    29.72F WCI  19
HASTINGS       CLOUDY    28  21  75 SE13      29.70F WCI  17
KEARNEY        CLOUDY    28  19  69 S15       29.68F WCI  17
ORD            CLOUDY    29  17  61 S10       29.69F WCI  20
YORK           CLOUDY    30  23  74 S14       29.78F WCI  20
AURORA         CLOUDY    30  22  74 S13       29.72F WCI  20
LEXINGTON      CLOUDY    29  22  75 SE12      29.64F WCI  19
HOLDREGE       CLOUDY    28  21  75 S16       29.66F WCI  16
HEBRON         CLOUDY    31  26  80 SE13G18   29.76F WCI  21

...NEBRASKA PANHANDLE...

CITY           SKY/WX    TMP DP  RH WIND       PRES   REMARKS
CHADRON        LGT SNOW  31  28  89 N16G23    29.67R VSB 1   WCI  20
ALLIANCE       CLOUDY    29  24  82 NE6       29.56F WCI  23
SCOTTSBLUFF    LGT SNOW  29  28  96 N7        29.61R VSB 1   WCI  22
SIDNEY         FOG       29  27  92 NE6       29.57S VSB 1   WCI  23

...WESTERN AND NORTH CENTRAL NEBRASKA...

CITY           SKY/WX    TMP DP  RH WIND       PRES   REMARKS
VALENTINE      CLOUDY    31  24  75 SW7       29.66F HAZE    WCI  24
AINSWORTH      CLOUDY    30  22  73 S9        29.68F WCI  21
ONEILL         CLOUDY    31  19  60 S9        29.73F WCI  23
BROKEN BOW     CLOUDY    29  19  66 S8        29.68S WCI  21
IMPERIAL         N/A     29  24  82 E9        29.58F WCI  20
NORTH PLATTE   CLOUDY    28  22  78 SE6       29.64F WCI  22
MCCOOK         CLOUDY    31  24  75 E6        29.61F WCI  25

...EASTERN NEBRASKA...

CITY           SKY/WX    TMP DP  RH WIND       PRES   REMARKS
NORFOLK        CLOUDY    30  19  63 S12       29.75F WCI  20
SO SIOUX CITY  CLOUDY    30  20  66 SE10      29.83F WCI  21
TEKAMAH        CLOUDY    32  21  64 S13       29.84F WCI  22
COLUMBUS       CLOUDY    30  18  59 S15       29.78F WCI  19
ALBION         CLOUDY    30  19  64 S16       29.73F WCI  19
OMAHA EPPLEY   CLOUDY    32  21  64 S18       29.85F WCI  20
OFFUTT AFB     CLOUDY    32  21  65 SE15      29.85F WCI  21
MILLARD        CLOUDY    32  21  64 SE12      29.86F WCI  23
LINCOLN        CLOUDY    32  23  69 S15       29.83F WCI  22
NEBRASKA CITY  CLOUDY    32  21  64 S12       29.85F WCI  23
BEATRICE       CLOUDY    32  27  81 S10G17    29.81F WCI  23
FALLS CITY     CLOUDY    34  24  67 S10       29.89F WCI  26

...NORTHERN KANSAS...

CITY           SKY/WX    TMP DP  RH WIND       PRES   REMARKS
GOODLAND       CLOUDY    34  31  88 S21       29.49F WCI  22
HILL CITY      CLOUDY    31  26  82 S12G18    29.62F WCI  22
PHILLIPSBURG   MOCLDY    34  27  75 SE13      29.67F WCI  25
SMITH CENTER   PTCLDY    28  25  86 SE17G23   29.70F WCI  16
BELOIT         CLEAR     30  27  86 SE15G22   29.74F WCI  19
HAYS           CLOUDY    32  21  64 S12       29.70F WCI  23
RUSSELL        CLOUDY    31  27  85 S12       29.72F WCI  22
CONCORDIA      CLOUDY    31  27  85 S16       29.77F WCI  20
SALINA         CLOUDY    33  30  88 S16       29.81F FOG     WCI  23
TOPEKA         CLOUDY    34  30  85 S9G17     29.91F WCI  27



USA.gov is the U.S. government's official web portal to all federal, state and local government web resources and services.